LR455 YBBN-YBUD

Flight info

Callsign LR455
Flight time 0h 37m
Altitude 18000
Route YBBN/01L N0276F180 BIXAD1 BIXAD Q67 GUDSO Q295 SOSTU DCT YBUD/32
Aircraft SF34/L-V/N

Departure

Time 2026-04-15 03:34
Airport Brisbane International Airport (YBBN)

Arrival

Time 2026-04-15 04:12
Airport Bundaberg Airport (YBUD)
Time Latitude Longitude Altitude Speed Heading
2026-04-15 03:20 -27.38689 153.12160 44 ft 0 kts 14°
2026-04-15 03:23 -27.38691 153.12160 44 ft 1 kts 14°
2026-04-15 03:23 -27.38702 153.12156 19 ft 2 kts 14°
2026-04-15 03:23 -27.38714 153.12153 19 ft 2 kts 14°
2026-04-15 03:24 -27.38726 153.12149 17 ft 2 kts 14°
2026-04-15 03:24 -27.38738 153.12145 18 ft 2 kts 24°
2026-04-15 03:24 -27.38747 153.12135 17 ft 2 kts 58°
2026-04-15 03:24 -27.38752 153.12119 17 ft 2 kts 85°
2026-04-15 03:25 -27.38751 153.12112 17 ft 0 kts 116°
2026-04-15 03:27 -27.38761 153.12135 19 ft 4 kts 116°
2026-04-15 03:27 -27.38784 153.12222 17 ft 10 kts 107°
2026-04-15 03:27 -27.38766 153.12322 17 ft 18 kts 30°
2026-04-15 03:27 -27.38641 153.12395 18 ft 27 kts 27°
2026-04-15 03:28 -27.38519 153.12464 17 ft 21 kts 25°
2026-04-15 03:28 -27.38379 153.12545 17 ft 22 kts 27°
2026-04-15 03:28 -27.38224 153.12632 18 ft 27 kts 27°
2026-04-15 03:28 -27.38084 153.12713 18 ft 21 kts 27°
2026-04-15 03:29 -27.37960 153.12763 17 ft 20 kts 334°
2026-04-15 03:29 -27.37868 153.12591 18 ft 25 kts 296°
2026-04-15 03:29 -27.37802 153.12445 17 ft 14 kts 296°
2026-04-15 03:29 -27.37740 153.12306 17 ft 23 kts 297°
2026-04-15 03:30 -27.37654 153.12119 18 ft 23 kts 296°
2026-04-15 03:30 -27.37578 153.11959 17 ft 23 kts 299°
2026-04-15 03:30 -27.37507 153.11799 17 ft 19 kts 298°
2026-04-15 03:30 -27.37441 153.11651 17 ft 5 kts 296°
2026-04-15 03:31 -27.37404 153.11570 17 ft 13 kts 297°
2026-04-15 03:31 -27.37436 153.11505 17 ft 12 kts 201°
2026-04-15 03:31 -27.37525 153.11437 17 ft 16 kts 255°
2026-04-15 03:31 -27.37484 153.11317 18 ft 20 kts 298°
2026-04-15 03:32 -27.37478 153.11303 17 ft 0 kts 297°
2026-04-15 03:32 -27.37476 153.11301 17 ft 4 kts 297°
2026-04-15 03:33 -27.37444 153.11231 16 ft 12 kts 297°
2026-04-15 03:33 -27.37413 153.11187 15 ft 5 kts 22°
2026-04-15 03:33 -27.37393 153.11197 15 ft 12 kts 25°
2026-04-15 03:33 -27.37029 153.11412 17 ft 107 kts 27°
2026-04-15 03:34 -27.36181 153.11898 371 ft 156 kts 27°
2026-04-15 03:34 -27.35122 153.12481 1143 ft 180 kts 27°
2026-04-15 03:34 -27.33918 153.13158 1837 ft 202 kts 27°
2026-04-15 03:34 -27.32638 153.13917 2658 ft 213 kts 28°
2026-04-15 03:35 -27.31281 153.14700 3442 ft 224 kts 26°
2026-04-15 03:35 -27.29862 153.15499 4214 ft 232 kts 27°
2026-04-15 03:35 -27.28402 153.16340 5013 ft 238 kts 27°
2026-04-15 03:35 -27.26908 153.17192 5808 ft 243 kts 27°
2026-04-15 03:36 -27.25394 153.18056 6592 ft 245 kts 27°
2026-04-15 03:36 -27.23863 153.18930 7340 ft 248 kts 27°
2026-04-15 03:36 -27.22314 153.19813 8105 ft 251 kts 26°
2026-04-15 03:36 -27.20768 153.20695 8885 ft 253 kts 26°
2026-04-15 03:37 -27.19187 153.21596 9687 ft 255 kts 25°
2026-04-15 03:37 -27.17488 153.22081 10448 ft 253 kts
2026-04-15 03:37 -27.15720 153.22168 11194 ft 256 kts
2026-04-15 03:37 -27.13933 153.22369 11958 ft 260 kts
2026-04-15 03:38 -27.12128 153.22661 12738 ft 264 kts
2026-04-15 03:38 -27.10295 153.22883 13535 ft 266 kts
2026-04-15 03:38 -27.08446 153.23122 14304 ft 269 kts
2026-04-15 03:38 -27.06585 153.23384 15052 ft 269 kts
2026-04-15 03:39 -27.04737 153.23618 15849 ft 267 kts
2026-04-15 03:39 -27.02900 153.23864 16666 ft 265 kts
2026-04-15 03:39 -27.01094 153.23954 17503 ft 257 kts 354°
2026-04-15 03:39 -26.99308 153.23939 18311 ft 259 kts 355°
2026-04-15 03:40 -26.98073 153.23979 18379 ft 277 kts 357°
2026-04-15 03:40 -26.95365 153.24060 18359 ft 301 kts 356°
2026-04-15 03:40 -26.93958 153.24076 18286 ft 309 kts 356°
2026-04-15 03:40 -26.91775 153.24129 18166 ft 317 kts 357°
2026-04-15 03:41 -26.89566 153.24185 18137 ft 318 kts 356°
2026-04-15 03:41 -26.87354 153.24223 18131 ft 318 kts 357°
2026-04-15 03:41 -26.85141 153.24278 18135 ft 318 kts 357°
2026-04-15 03:41 -26.82930 153.24325 18129 ft 317 kts 357°
2026-04-15 03:42 -26.80726 153.24371 18136 ft 317 kts 357°
2026-04-15 03:42 -26.77802 153.24436 18137 ft 317 kts 357°
2026-04-15 03:42 -26.76315 153.24467 18142 ft 317 kts 357°
2026-04-15 03:42 -26.74111 153.24516 18141 ft 317 kts 357°
2026-04-15 03:43 -26.71907 153.24563 18142 ft 317 kts 357°
2026-04-15 03:43 -26.69707 153.24608 18149 ft 315 kts 356°
2026-04-15 03:43 -26.67607 153.24128 18145 ft 306 kts 333°
2026-04-15 03:43 -26.65705 153.23082 18147 ft 305 kts 331°
2026-04-15 03:44 -26.63740 153.22158 18146 ft 307 kts 335°
2026-04-15 03:44 -26.61728 153.21334 18149 ft 308 kts 336°
2026-04-15 03:44 -26.59740 153.20452 18138 ft 307 kts 333°
2026-04-15 03:44 -26.57791 153.19536 18146 ft 308 kts 334°
2026-04-15 03:45 -26.55788 153.18673 18157 ft 308 kts 335°
2026-04-15 03:45 -26.53798 153.17781 18144 ft 308 kts 334°
2026-04-15 03:45 -26.51816 153.16877 18146 ft 308 kts 335°
2026-04-15 03:45 -26.49821 153.16003 18144 ft 308 kts 335°
2026-04-15 03:46 -26.47833 153.15109 18152 ft 308 kts 335°
2026-04-15 03:46 -26.45848 153.14219 18148 ft 308 kts 335°
2026-04-15 03:46 -26.43854 153.13336 18151 ft 308 kts 335°
2026-04-15 03:46 -26.41867 153.12444 18145 ft 308 kts 335°
2026-04-15 03:47 -26.39879 153.11560 18144 ft 307 kts 335°
2026-04-15 03:47 -26.37892 153.10675 18148 ft 307 kts 335°
2026-04-15 03:47 -26.35908 153.09788 18148 ft 307 kts 335°
2026-04-15 03:47 -26.33920 153.08905 18145 ft 307 kts 335°
2026-04-15 03:48 -26.31936 153.08020 18143 ft 307 kts 335°
2026-04-15 03:48 -26.29947 153.07135 18140 ft 307 kts 335°
2026-04-15 03:48 -26.27964 153.06252 18145 ft 307 kts 335°
2026-04-15 03:48 -26.25975 153.05368 18145 ft 307 kts 335°
2026-04-15 03:49 -26.23990 153.04485 18141 ft 307 kts 336°
2026-04-15 03:49 -26.22003 153.03601 18142 ft 308 kts 336°
2026-04-15 03:49 -26.20041 153.02731 18143 ft 308 kts 336°
2026-04-15 03:49 -26.18027 153.01834 18139 ft 308 kts 336°
2026-04-15 03:50 -26.16036 153.00952 18139 ft 308 kts 336°
2026-04-15 03:50 -26.14074 153.00080 18137 ft 308 kts 336°
2026-04-15 03:50 -26.12086 152.99198 18140 ft 308 kts 336°
2026-04-15 03:50 -26.10091 152.98314 18138 ft 308 kts 335°
2026-04-15 03:51 -26.08103 152.97431 18135 ft 308 kts 336°
2026-04-15 03:51 -26.06111 152.96549 18138 ft 308 kts 336°
2026-04-15 03:51 -26.04120 152.95667 18139 ft 308 kts 336°
2026-04-15 03:51 -26.02131 152.94787 18142 ft 308 kts 336°
2026-04-15 03:52 -26.00142 152.93905 18151 ft 308 kts 336°
2026-04-15 03:52 -25.98150 152.93024 18154 ft 308 kts 336°
2026-04-15 03:52 -25.96158 152.92143 18156 ft 308 kts 336°
2026-04-15 03:52 -25.94170 152.91264 18148 ft 308 kts 336°
2026-04-15 03:53 -25.92180 152.90384 18149 ft 307 kts 336°
2026-04-15 03:53 -25.90193 152.89506 18146 ft 307 kts 336°
2026-04-15 03:53 -25.88205 152.88628 18144 ft 307 kts 336°
2026-04-15 03:53 -25.86220 152.87751 18158 ft 307 kts 336°
2026-04-15 03:54 -25.84232 152.86874 18159 ft 307 kts 336°
2026-04-15 03:54 -25.82273 152.86009 18156 ft 307 kts 336°
2026-04-15 03:54 -25.80286 152.85133 18159 ft 307 kts 336°
2026-04-15 03:55 -25.76311 152.83380 18172 ft 307 kts 336°
2026-04-15 03:55 -25.74323 152.82504 18174 ft 307 kts 336°
2026-04-15 03:55 -25.72337 152.81626 18179 ft 308 kts 336°
2026-04-15 03:55 -25.70343 152.80749 18208 ft 308 kts 336°
2026-04-15 03:56 -25.68345 152.79870 18227 ft 308 kts 336°
2026-04-15 03:56 -25.66353 152.78993 18244 ft 308 kts 336°
2026-04-15 03:56 -25.64359 152.78117 18248 ft 309 kts 336°
2026-04-15 03:56 -25.62362 152.77238 18263 ft 309 kts 336°
2026-04-15 03:57 -25.60363 152.76360 18286 ft 309 kts 336°
2026-04-15 03:57 -25.58364 152.75484 18294 ft 308 kts 337°
2026-04-15 03:57 -25.56376 152.74612 18294 ft 307 kts 336°
2026-04-15 03:57 -25.54418 152.73749 18294 ft 307 kts 337°
2026-04-15 03:58 -25.52436 152.72882 18296 ft 306 kts 337°
2026-04-15 03:58 -25.50454 152.72011 18296 ft 306 kts 336°
2026-04-15 03:58 -25.48467 152.71140 18295 ft 306 kts 337°
2026-04-15 03:58 -25.46485 152.70271 18296 ft 306 kts 337°
2026-04-15 03:59 -25.44496 152.69399 18186 ft 309 kts 337°
2026-04-15 03:59 -25.42583 152.68565 17870 ft 271 kts 336°
2026-04-15 03:59 -25.40932 152.67841 17547 ft 247 kts 336°
2026-04-15 03:59 -25.39353 152.67145 17238 ft 242 kts 336°
2026-04-15 04:00 -25.37790 152.66463 16927 ft 241 kts 336°
2026-04-15 04:00 -25.36237 152.65782 16621 ft 240 kts 336°
2026-04-15 04:00 -25.34683 152.65103 16289 ft 241 kts 336°
2026-04-15 04:00 -25.33114 152.64416 15889 ft 244 kts 336°
2026-04-15 04:01 -25.31532 152.63725 15471 ft 246 kts 336°
2026-04-15 04:01 -25.29932 152.63025 15000 ft 248 kts 336°
2026-04-15 04:01 -25.28342 152.62331 14551 ft 249 kts 335°
2026-04-15 04:01 -25.26729 152.61626 14098 ft 250 kts 335°
2026-04-15 04:02 -25.25110 152.60919 13612 ft 251 kts 335°
2026-04-15 04:02 -25.23487 152.60211 13109 ft 251 kts 335°
2026-04-15 04:02 -25.21868 152.59503 12614 ft 249 kts 336°
2026-04-15 04:02 -25.20261 152.58802 12128 ft 248 kts 336°
2026-04-15 04:03 -25.18662 152.58105 11652 ft 246 kts 336°
2026-04-15 04:03 -25.17075 152.57413 10987 ft 243 kts 336°
2026-04-15 04:03 -25.15507 152.56729 10230 ft 242 kts 336°
2026-04-15 04:03 -25.13945 152.56049 9401 ft 241 kts 336°
2026-04-15 04:04 -25.12385 152.55368 8527 ft 241 kts 337°
2026-04-15 04:04 -25.10816 152.54683 7592 ft 244 kts 338°
2026-04-15 04:04 -25.09224 152.53993 6679 ft 247 kts 338°
2026-04-15 04:04 -25.07620 152.53292 5735 ft 249 kts 339°
2026-04-15 04:05 -25.06000 152.52589 4689 ft 252 kts 339°
2026-04-15 04:05 -25.04379 152.51873 3643 ft 250 kts 338°
2026-04-15 04:05 -25.03020 152.50686 2604 ft 254 kts 307°
2026-04-15 04:05 -25.02425 152.48936 2105 ft 235 kts 272°
2026-04-15 04:06 -25.02778 152.47353 2090 ft 198 kts 236°
2026-04-15 04:06 -25.03700 152.46408 1856 ft 169 kts 209°
2026-04-15 04:06 -25.04567 152.45659 1636 ft 152 kts 233°
2026-04-15 04:06 -25.04937 152.44623 1403 ft 140 kts 256°
2026-04-15 04:07 -25.05173 152.43637 1234 ft 129 kts 253°
2026-04-15 04:07 -25.05044 152.42653 1131 ft 134 kts 300°
2026-04-15 04:07 -25.04459 152.41910 1095 ft 126 kts 330°
2026-04-15 04:07 -25.03721 152.41450 1082 ft 123 kts 332°
2026-04-15 04:08 -25.03011 152.40920 1066 ft 124 kts 330°
2026-04-15 04:08 -25.02267 152.40415 1044 ft 127 kts 332°
2026-04-15 04:08 -25.01530 152.39900 1032 ft 125 kts 328°
2026-04-15 04:08 -25.00784 152.39384 1002 ft 126 kts 331°
2026-04-15 04:09 -25.00037 152.38865 995 ft 128 kts 331°
2026-04-15 04:09 -24.99281 152.38338 915 ft 129 kts 332°
2026-04-15 04:09 -24.98512 152.37777 942 ft 133 kts 332°
2026-04-15 04:09 -24.97738 152.37226 827 ft 140 kts 331°
2026-04-15 04:10 -24.96786 152.36572 839 ft 167 kts 332°
2026-04-15 04:10 -24.95887 152.35963 735 ft 147 kts 333°
2026-04-15 04:10 -24.95055 152.35408 611 ft 151 kts 334°
2026-04-15 04:10 -24.94148 152.34793 576 ft 145 kts 330°
2026-04-15 04:11 -24.93299 152.34164 484 ft 150 kts 331°
2026-04-15 04:11 -24.92448 152.33604 349 ft 139 kts 331°
2026-04-15 04:11 -24.91662 152.33054 214 ft 130 kts 329°
2026-04-15 04:11 -24.90918 152.32545 111 ft 113 kts 331°
2026-04-15 04:12 -24.90518 152.32273 105 ft 31 kts 327°
2026-04-15 04:12 -24.90332 152.32145 102 ft 24 kts 329°
2026-04-15 04:12 -24.90261 152.32137 103 ft 10 kts 54°
2026-04-15 04:12 -24.90217 152.32212 102 ft 10 kts 54°
2026-04-15 04:13 -24.90163 152.32268 103 ft 14 kts 357°
2026-04-15 04:13 -24.90115 152.32237 101 ft 5 kts 297°
2026-04-15 04:13 -24.90080 152.32212 102 ft 7 kts 333°
2026-04-15 04:13 -24.90017 152.32172 102 ft 12 kts 328°
2026-04-15 04:14 -24.89992 152.32126 100 ft 13 kts 283°
2026-04-15 04:14 -24.89978 152.32104 100 ft 5 kts 45°
2026-04-15 04:14 -24.89954 152.32117 102 ft 0 kts 12°